Starlink 11508

operational
NORAD ID: 62515 Int'l Des: 2025-004 Owner: SPXS Country: US Constellation: starlink
LEOCIRCULAR

Über Starlink 11508

Beschreibung wird geladen...

Live-Position

3D-Globus wird geladen...

Nächste Überflüge

Höhenverlauf

Altitude vs Time

uPlot chart will show altitude changes over time

Zweizeiliger Elementsatz

1 62515U 25004E 26035.01060300 .00379076 00000-0 28132-2 0 9996
2 62515 43.0002 273.5602 0001505 277.4204 82.6492 15.70940502 61913
Epoch: 4. Feb. 2026 • Age: 10 hours

Aktueller Status

Höhe 362.7 km
Geschwindigkeit 7.69 km/s
Subsatellitenpunkt -30.59°S, 63.73°W
Startdatum 8. Jan. 2025
Alter 1 years
Typ internet

Technische Details

Klassifizierung Payload
Masse 960.00 kg
Trockenmasse 910.00 kg
Gesamtmasse 960.00 kg
Länge 0.30 m
Durchmesser 4.10 m
Spannweite 29.00 m
Form Box + pan
Hersteller SPXS
Bus-Typ Starlink V2MD
Phasenstatus In Orbit
Besitzer/Staat SPXS/US

Große Konstellationen

Loading constellations...